Regional Weather Roundup
Issued by NWS Columbia, SC

Home | Current Version | Previous Version | Text Only | Print | Product List | Glossary On
Versions: 1 2 3 4 5 6 7 8 9 10 11 12 13 14 15 16 17 18 19 20 21 22 23 24 25 26 27 28 29 30 31 32 33 34 35 36 37 38 39 40 41 42 43 44 45 46 47 48 49 50
000
ASUS42 KCAE 060610
RWRCAE
REGIONAL WEATHER ROUNDUP
NATIONAL WEATHER SERVICE COLUMBIA SC
200 AM EDT WED MAY 06 2015

NOTE: "FAIR" INDICATES FEW OR NO CLOUDS BELOW 12,000 FEET WITH NO
SIGNIFICANT WEATHER AND/OR OBSTRUCTIONS TO VISIBILITY.

NOT ALL STATIONS ARE QUALITY CONTROLLED BY THE NATIONAL
WEATHER SERVICE. USE DATA WITH CAUTION...ESPECIALLY
DEWPOINT OBSERVATIONS.

SCZ001>056-GAZ040-063>065-077-060700-
...UPSTATE SOUTH CAROLINA...

CITY           SKY/WX    TMP DP  RH WIND       PRES   REMARKS
ANDERSON       CLEAR     58  53  84 CALM      30.25F
6HR MIN TEMP:  58; 6HR MAX TEMP:  74;

LIBERTY        CLEAR     55  55  99 CALM      30.26F
6HR MIN TEMP:  55; 6HR MAX TEMP:  82;

SPARTANBURG    PTCLDY    61  61 100 CALM      30.25F
CLEMSON        CLEAR     63  57  81 NW3       30.27F
6HR MIN TEMP:  63; 6HR MAX TEMP:  76;

GREENVILLE     CLEAR     63  53  70 CALM      30.27F
6HR MIN TEMP:  62; 6HR MAX TEMP:  77;

GREENWOOD      PTCLDY    57  54  89 CALM      30.27S
6HR MIN TEMP:  56; 6HR MAX TEMP:  74;

GREER          CLEAR     62  54  74 CALM      30.25F
6HR MIN TEMP:  61; 6HR MAX TEMP:  74;

ROCK HILL      CLEAR     57  54  89 CALM      30.27S
6HR MIN TEMP:  57; 6HR MAX TEMP:  76;

CHESTER        PTCLDY    61  54  77 CALM      30.27S
LAURENS        PTCLDY    59  57  94 CALM      30.25F


...CENTRAL SOUTH CAROLINA...

CITY           SKY/WX    TMP DP  RH WIND       PRES   REMARKS
COLUMBIA APT   MOCLDY    64  53  67 NE5       30.25S
6HR MIN TEMP:  62; 6HR MAX TEMP:  77;

COLUMBIA OWENS MOCLDY    62  54  74 CALM      30.26F
6HR MIN TEMP:  62; 6HR MAX TEMP:  77;

DARLINGTON     PTCLDY    59  52  77 N3        30.27F
6HR MIN TEMP:  59; 6HR MAX TEMP:  75;

FLORENCE       PTCLDY    59  55  87 NE3       30.25F
6HR MIN TEMP:  59; 6HR MAX TEMP:  74;

MCENTIRE ANGB  MOCLDY    56  54  90 NE1       30.25F
6HR MIN TEMP:  56; 6HR MAX TEMP:  73;

ORANGEBURG     MOCLDY    58  54  86 CALM      30.24F
6HR MIN TEMP:  57; 6HR MAX TEMP:  75;

SUMTER SHAW    PTCLDY    59  53  81 NE3       30.24F
6HR MIN TEMP:  58; 6HR MAX TEMP:  74;

NEWBERRY       PTCLDY    57  54  88 SE3       30.29R
AIKEN          FAIR      61  52  72 SE5       30.28F
BARNWELL       FAIR      59  55  88 CALM      30.24F
MANNING        FAIR      55  52  88 CALM      30.24F
CAMDEN         FAIR      57  52  82 CALM      30.26F
LANCASTER      PTCLDY    59  55  88 CALM      30.27F
WINNSBORO      MOCLDY    61  54  77 CALM      30.26F


...EASTERN AND COASTAL SOUTH CAROLINA...

CITY           SKY/WX    TMP DP  RH WIND       PRES   REMARKS
MYRTLE BEACH   CLOUDY    63  57  82 N5        30.26F
6HR MIN TEMP:  63; 6HR MAX TEMP:  70;

N MYRTLE BCH   CLOUDY    59  56  89 NE5       30.24F
6HR MIN TEMP:  59; 6HR MAX TEMP:  70;

CONWAY         FAIR      55  55 100 CALM      30.25F
MARION         FAIR      55  54  94 CALM      30.26F
HARTSVILLE     FAIR      59  54  82 CALM      30.25F
FLORENCE       PTCLDY    59  55  87 NE3       30.25F
6HR MIN TEMP:  59; 6HR MAX TEMP:  74;

DARLINGTON     PTCLDY    59  52  77 N3        30.27F
6HR MIN TEMP:  59; 6HR MAX TEMP:  75;

CHARLESTON APT MOCLDY    61  59  93 N6        30.22F
6HR MIN TEMP:  61; 6HR MAX TEMP:  71;

MOUNT PLEASANT FAIR      63  61  94 MISG      30.22F
WALTERBORO     MOCLDY    57  55  94 CALM      30.23F
BEAUFORT       MOCLDY    64  61  90 N7        30.20F
6HR MIN TEMP:  63; 6HR MAX TEMP:  71;



...EASTERN GEORGIA...

CITY           SKY/WX    TMP DP  RH WIND       PRES   REMARKS
AUGUSTA BUSH F PTCLDY    56  53  90 CALM      30.24F
6HR MIN TEMP:  54; 6HR MAX TEMP:  72;

AUGUSTA DANIEL PTCLDY    66  54  65 E3        30.25F
6HR MIN TEMP:  66; 6HR MAX TEMP:  78;

THOMSON        CLEAR     57  57 100 CALM      30.28F
6HR MIN TEMP:  56; 6HR MAX TEMP:  75;

WASHINGTON     FAIR      61  61 100 CALM      30.24S
CLAXTON        FAIR      61  59  94 CALM      30.21F
SYLVANIA       CLOUDY    60  59  97 CALM      30.22F
6HR MIN TEMP:  60; 6HR MAX TEMP:  74;

STATESBORO       N/A     59  59 100 CALM      30.22F
6HR MIN TEMP:  59; 6HR MAX TEMP:  76;

SAVANNAH       MOCLDY    64  60  87 NE6       30.20F
6HR MIN TEMP:  63; 6HR MAX TEMP:  72;



...SOUTHERN NORTH CAROLINA...

CITY           SKY/WX    TMP DP  RH WIND       PRES   REMARKS
CHARLOTTE      PTCLDY    63  51  65 CALM      30.27S
6HR MIN TEMP:  62; 6HR MAX TEMP:  75;

MONROE         CLEAR     58  53  84 S3        30.27R
6HR MIN TEMP:  58; 6HR MAX TEMP:  73;

WADESBORO      PTCLDY    58  53  83 CALM      30.27F
6HR MIN TEMP:  58; 6HR MAX TEMP:  74;

ROCKINGHAM     PTCLDY    60  54  78 CALM      30.27F
6HR MIN TEMP:  60; 6HR MAX TEMP:  75;

RUTHERFORDTON  CLEAR     57  55  95 CALM      30.28F
6HR MIN TEMP:  57; 6HR MAX TEMP:  75;

ASHEVILLE      CLEAR     55  51  86 CALM      30.31F
6HR MIN TEMP:  54; 6HR MAX TEMP:  70;


$$


USA.gov is the U.S. government's official web portal to all federal, state and local government web resources and services.